www.pogodaiklimat.ru

Погода и климат >> Архив погоды >> Румыния >> Darabani


ПОГОДА в Darabani

  • Прогноз погоды в Darabani
  • Монитор погоды в Darabani
  • Климат города

АРХИВ ПОГОДЫ в Darabani

Время (UTC), дата Ветер
(напр.,м/с)
 
Видим.   Явления Облачность Т
(С)
Тd
(С)
f
(%)
Тe
(С)
Тes
(С)
Комфортность P
(гПа)
Po
(гПа)
Тmin
(С)
Tmax
(С)
R
(мм)
R24
(мм)
S
(см)
09 18.02 С 1-1
{1}
10 км 10/0
[Ac As]
-0.5 -3.1 83 -2 -1 1024.4 991.5
12 18.02 СЗ 2-3
{3}
10 км 10/0
[Ac As]
+1.6 -2.6 74 -2 -0 1024.2 991.5 17
15 18.02 ЮЗ 1-2
{2}
н/о н/о +0.7 -2.3 80 -1 -1 1024.7 991.9
18 18.02 З 3 4000 м дымка 10/6 600 м
[Sc Ac As]
-0.8 -0.8 100 -6 -6 1025.9 992.9 -3.7 +2.8 16
21 18.02 СЗ 2-3
{5}
н/о н/о -1.3 -1.3 100 -5 -5 1026.9 993.8
00 19.02 С 4-6
{7}
н/о н/о -2.3 -5.8 77 -8 -8 1027.8 994.6
03 19.02 З 2-3
{3}
н/о н/о -3.7 -6.3 82 -8 -8 1028.0 994.6
06 19.02 СЗ 2 4000 м дымка 10/6 600 м
[Sc Ac As]
-3.6 -4.5 93 -8 -8 1028.6 995.2 -4.0 -0.7 16
09 19.02 СЗ 2-4
{4}
10 км 10/6 600 м
[Sc Ac As]
-1.5 -6.1 71 -5 -4 1028.8 995.7
12 19.02 С 3-5
{5}
10 км 10/5 600 м
[Sc Ac As]
-1.1 -8.2 58 -5 -5 1028.1 995.0 15
15 19.02 С 2-3
{3}
н/о н/о -1.3 -8.4 58 -5 -5 1027.7 994.6
18 19.02 В 2 10 км ясно -2.4 -7.8 66 -6 -6 1027.4 994.2 -3.6 +0.8 15
21 19.02 Ю 2-3
{4}
н/о н/о -5.0 -8.7 75 -9 -9 1027.4 993.8
00 20.02 ЮВ 3-4
{4}
н/о н/о -6.9 -8.9 86 -13 -13 1027.1 993.4
03 20.02 ЮВ 3-5
{5}
н/о н/о -7.5 -8.4 93 -13 -13 1026.4 992.6
06 20.02 ЮВ 3 10 км 3/0
[Ac lent]
-7.8 -8.4 95 -14 -13 1026.1 992.3 -8.5 -2.4 15
09 20.02 ЮВ 4-6
{7}
10 км 10/0
[Cs]
-5.8 -6.3 96 -12 -10 1026.0 992.4
12 20.02 ЮВ 4-8
{8}
10 км 10/0
[Ac As Cs]
-2.2 -5.3 79 -8 -6 1024.5 991.5 15
15 20.02 В 5-7
{8}
н/о н/о -2.5 -5.0 83 -9 -9 1023.4 990.3
18 20.02 ЮВ 4 10 км 9/0
[Ac As]
-2.7 -4.0 91 -9 -9 1023.3 990.2 -8.6 -1.5 15
21 20.02 ЮВ 4-7
{8}
н/о н/о -2.7 -4.8 85 -9 -9 1023.0 989.8
00 21.02 ЮВ 4-7
{7}
н/о н/о -2.8 -4.2 90 -9 -9 1022.7 989.6
03 21.02 ЮВ 6-9
{10}
н/о н/о -2.6 -3.3 95 -10 -10 1021.5 988.5
06 21.02 ЮВ 7 10 км 10/5 600 м
[Sc Ac As]
-2.4 -3.1 95 -10 -10 1021.5 988.5 -2.9 -2.4 15
09 21.02 ЮВ 8-13
{13}
10 км 10/5 600 м
[Sc Ac As]
-1.8 -2.8 93 -10 -10 1021.4 988.4
12 21.02 ЮВ 8-13
{13}
10 км 10/5 600 м
[Sc Ac As]
-1.1 -4.1 80 -9 -9 1020.9 988.0 15
15 21.02 ЮВ 5-9
{11}
н/о н/о -1.4 -4.5 79 -8 -8 1020.5 987.6
18 21.02 ЮВ 4 10 км 10/6 600 м
[Sc Ac As]
-2.2 -3.0 94 -8 -8 1021.2 988.2 -2.4 -1.0 15
21 21.02 В 2-3
{4}
н/о н/о -2.4 -2.4 100 -7 -7 1022.2 989.2
00 22.02 В 3-4
{5}
н/о н/о -2.5 -3.0 96 -8 -8 1022.3 989.3
03 22.02 В 4-6
{6}
н/о н/о -2.6 -3.0 97 -9 -9 1022.2 989.1
06 22.02 В 2 4000 м дымка 10/8 600 м
[Sc Ac As]
-3.1 -3.1 100 -7 -7 1022.8 989.7 -3.1 -2.2 15
09 22.02 В 3-5
{5}
4000 м дымка 10/8 600 м
[Sc Ac As]
-2.7 -3.1 97 -8 -8 1023.4 990.3
12 22.02 В 4-5
{5}
4000 м дымка 10/5 600 м
[Sc Ac As]
-2.0 -3.7 88 -8 -7 1023.2 990.2 15
15 22.02 В 3-4
{4}
н/о н/о -1.9 -3.7 87 -7 -7 1022.8 989.8
18 22.02 В 3 4000 м дымка 10/6 600 м
[Sc Ac As]
-2.3 -2.9 96 -8 -8 1023.3 990.2 -3.1 -1.6 15
21 22.02 В 3-5
{5}
н/о н/о -2.5 -2.9 97 -8 -8 1023.4 990.3
00 23.02 В 4-5
{5}
н/о н/о -2.9 -3.2 98 -9 -9 1023.7 990.5
03 23.02 В 4-5
{6}
н/о н/о -4.2 -4.2 100 -11 -11 1023.1 989.8
06 23.02 В 3 2000 м слабый снег 10/6 600 м
[Sc Ac As]
-4.5 -8 -8 1023.3 990.0 -4.5 -2.3 0.4 16
09 23.02 В 3-4
{5}
4000 м дымка {снег} 10/5 600 м
[Sc Ac As]
-3.7 -7 -7 1023.7 990.4 0.1
12 23.02 СВ 3-4
{4}
4000 м дымка {снег} 10/5 600 м
[Sc Ac As]
-2.6 -2.6 100 -8 -7 1022.7 989.6 16
15 23.02 В 2-3
{3}
н/о н/о -2.5 -2.5 100 -7 -7 1021.5 988.4
18 23.02 СВ 1 4000 м дымка 10/8 600 м
[Sc Ac As]
-3.3 -3.3 100 -6 -6 1020.9 987.8 -4.6 -1.8 16
21 23.02 С 2-2
{3}
н/о н/о -3.4 -3.5 100 -6 -6 1020.3 987.2 0.5
00 24.02 СЗ 3-4
{4}
н/о н/о -3.8 -3.8 100 -9 -9 1019.2 986.1 0.6
03 24.02 СЗ 4-6
{6}
н/о н/о -5.0 -5.0 100 -12 -12 1018.6 985.3 0.4
06 24.02 С 4 4000 м дымка {снег} 10/6 600 м
[Sc Ac As]
-6.9 -6.9 100 -14 -14 1019.7 986.1 -6.9 -3.3 0.0 20
09 24.02 СЗ 4-8
{8}
4000 м дымка 10/5 600 м
[Sc Ac As]
-7.1 -7.2 99 -14 -13 1019.9 986.4
12 24.02 С 6-9
{9}
10 км 6/0
[Ac und]
-4.5 -9.0 71 -12 -11 1018.4 985.3 20
15 24.02 С 5-8
{8}
н/о н/о -5.7 -10.5 69 -13 -13 1018.9 985.6
18 24.02 С 5 10 км 9/0
[Ac As]
-8.3 -11.9 75 -16 -16 1020.5 986.8 -8.3 -4.2 20
21 24.02 СЗ 4-6
{6}
н/о н/о -10.6 -12.5 86 -18 -18 1022.0 987.9
00 25.02 СЗ 3-5
{6}
н/о н/о -10.2 -10.8 95 -16 -16 1022.5 988.5
03 25.02 СЗ 4-7
{7}
н/о н/о -10.5 -10.9 97 -18 -18 1022.3 988.3
06 25.02 СЗ 4 2000 м дымка 10/6 600 м
[Sc Ac As]
-11.0 -11.2 98 -18 -18 1023.8 989.6 -11.6 -8.3 20

 

Местоположение метеостанции Darabani (Румыния): широта 48.20 долгота 26.58 высота над уровнем моря 260 м.

В архиве по умолчанию представлена погода в Darabani за последнюю неделю. Архивные данные за месяц целиком и за предыдущие месяцы, начиная с января 2011 года, Вы можете получить, выбрав интересующий диапазон дат из раскрывающегося списка и нажав кнопку "Ввод!".

Внимание! Время в таблицах - всемирное. Для получения местного времени необходимо прибавить поправку, которая в Darabani равна 2 ч.

Смотрите также архив погоды в соседних городах и на ближайших метеорологических станциях:

Погода в Бричанах (Молдова) (41 км)
Погода в Каменец-Подольском (Хмельницкая область, Украина) (50 км)
Погода в Botosani (Румыния) (53 км)
Погода в Черновцах (Черновицкая область, Украина) (54 км)
Погода в Stanca Stefanesti (Румыния) (63 км)
Погода в Radauti (Румыния) (65 км)
Погода в Suceava (Румыния) (68 км)
Погода в Новоднестровске (Черновицкая область, Украина) (76 км)
Погода в Новой Ушице (Хмельницкая область, Украина) (88 км)
Погода в Могилев-Подольском (Винницкая область, Украина) (93 км)

Пояснения к столбцам:

Ветер - указаны скорость ветра в м/с - средняя за 10 мин, порывы в срок и между сроками (в фигурных скобках) и направление, откуда дует ветер: С - северный, СВ - северо-восточный, В - восточный, ЮВ - юго-восточный, Ю - южный, ЮЗ - юго-западный, З - западный, СЗ - северо-западный.
Видимость - горизонтальная дальность видимости в метрах или километрах. При видимости от 1 до 10 км при отсутствии осадков обычно наблюдается дымка, при ухудшении видимости до 1 км и менее - туман. В сухую погоду видимость может ухудшаться дымом, пылью или мглою.
Явления - указаны атмосферные явления, наблюдавшиеся в срок или в последний час перед сроком; фигурными скобками обозначены явления, наблюдавшиеся между сроками (за 1-3 часа до срока); квадратными скобками обозначены град или гололедные отложения с указанием их диаметра в мм.
Облачность - указаны через наклонную черту общая и нижняя облачность в баллах и высота нижней границы облаков в метрах; квадратными скобками обозначены формы облаков: Ci - перистые, Cs - перисто-слоистые, Cc - перисто-кучевые, Ac - высококучевые, As - высокослоистые, Sc - слоисто-кучевые, Ns - слоисто-дождевые, Cu - кучевые, Cb - кучево-дождевые. Подробнее классификацию облаков см. в Атласе облаков (PDF).
T - Температура воздуха - температура, измеренная на высоте 2 м над землей.
Td - Температура точки росы - температура, при понижении до которой содержащийся в воздухе водяной пар достигнет насыщения.
f - Относительная влажность воздуха - влажноcть воздуха, измеренная на высоте 2 м над землей.
Te - Эффективная температура - температура, которую ощущает одетый по сезону человек в тени. Характеристика душности погоды. При расчете учитывается влияние влажности воздуха и скорости ветра на теплоощущения человека.
Tes - Эффективная температура на солнце - температура, которую ощущает человек, с поправкой на солнечный нагрев. Характеристика знойности погоды. Зависит от высоты солнца над горизонтом, облачности и скорости ветра. Ночью, в пасмурную погоду, а также при ветре 12 м/с и более поправка равна нулю.
P - Атмосферное давление - приведенное к уровню моря атмосферное давление.
Po - Атмосферное давление - измеренное на уровне метеостанции атмосферное давление.
Tmin - Минимальная температура - минимум температуры воздуха на высоте 2 м над землей.
Tmax - Максимальная температура - максимум температуры воздуха на высоте 2 м над землей.
R - Количество осадков - Количество выпавших осадков за период времени, мм. При наведении курсора мыши на число - период времени, за который выпало указанное количество осадков.
R24 - Количество осадков - Количество выпавших осадков за 24 часа, мм.
S - Снежный покров - Высота снежного покрова, см. При наведении курсора мыши на число - состояние снежного покрова и степень покрытия местности в баллах.